Location: Overspoor
(51.4747°N, 5.6641°E)
Time: 15:28:06
(UTC+02:00)

KKS-1 - Pass Details

Date: 03 July 2022
Orbit: 634 x 649 km, 98.2° (Epoch: 18 August)

Event Time Altitude Azimuth Distance (km) Brightness Sun altitude
Rises 22:54:00 0° 23° (NNE) 2,979 ? -7.0°
Reaches altitude 10° 22:56:32 10° 36° (NE) 2,062 ? -7.3°
Maximum altitude 23:00:20 26° 94° (E) 1,265 ? -7.6°
Drops below altitude 10° 23:04:06 10° 152° (SSE) 2,041 ? -8.0°
Enters shadow 23:04:08 10° 152° (SSE) 2,054 ? -8.0°
